Lid_Strength_Index
13 12 12 13 13 12 13 13 17 14 14 11 10 9 8 7 7 7 6 6 7 6 6 5 4 4 3 3 3 4 4 5 5 5 5 4 4 4 5 6 7 8 9 10
14 12 12 14 13 12 11 12 12 12 13 8 8 7 8 8 7 7 7 7 6 6 5 5 5 5 6 5 5 6 6 5 5 6 5 5 4 5 6 7 9 11 12 12
17 12 13 17 14 13 12 11 12 14 11 8 10 9 9 8 8 8 7 7 7 6 5 5 5 5 5 5 5 5 5 6 6 5 5 5 5 6 8 10 11 12 13 14
17 15 21 14 10 10 12 11 10 11 10 9 9 9 8 7 8 7 7 6 6 5 5 4 4 4 4 5 5 6 6 5 5 5 5 6 7 8 8 8 10 12 13 14
18 18 15 13 11 12 13 13 10 10 10 9 8 9 9 7 7 6 6 5 5 4 4 4 3 4 4 5 6 5 5 6 5 5 6 7 7 7 7 8 9 12 13 13
15 19 21 14 11 10 11 16 11 10 10 11 9 13 10 8 6 6 5 5 5 4 4 4 4 4 5 5 5 7 6 6 6 6 7 7 7 7 8 10 10 10 11 12
16 17 15 12 11 10 17 15 12 11 10 10 10 9 7 6 6 5 5 4 4 5 6 5 4 4 5 5 6 6 6 6 6 5 5 6 7 7 8 10 11 12 12 13
16 17 19 10 12 16 13 11 9 8 8 8 7 7 7 7 6 5 5 5 5 5 5 5 5 6 6 6 5 6 6 6 5 5 6 6 7 8 8 9 9 11 13 14
16 16 12 10 11 11 10 9 8 8 7 7 7 7 7 7 6 5 5 5 6 6 6 6 6 6 7 7 6 6 6 6 7 10 11 11 11 11 8 9 10 13 15 15
14 12 12 11 11 10 9 8 8 8 8 7 8 7 7 7 7 6 6 7 6 7 7 8 7 7 7 6 7 11 12 12 13 13 14 14 14 13 13 13 14 13 14 14
14 12 12 11 11 10 9 8 8 8 8 8 8 8 7 7 7 7 7 7 6 7 7 8 7 7 8 10 11 13 13 14 15 16 16 16 16 15 15 15 14 15 15 15
16 13 13 13 10 10 9 9 9 9 9 8 8 8 7 8 7 8 8 7 8 7 8 8 8 10 10 11 11 13 14 15 15 16 16 16 16 16 13 13 12 12 12 13
14 11 11 10 10 9 9 9 9 8 8 9 8 8 8 8 8 8 9 8 8 8 9 9 10 10 10 11 12 13 14 14 15 15 16 16 15 15 16 13 11 12 12 12
11 11 12 11 12 9 9 9 8 9 8 8 8 8 8 8 8 8 9 8 8 8 9 9 10 10 10 10 11 12 12 12 14 15 15 14 14 13 13 13 14 14 12 12
12 10 11 10 9 10 9 9 9 10 9 9 8 8 8 9 9 9 8 8 8 8 9 9 10 10 9 9 10 10 11 12 12 12 12 12 11 11 11 12 13 14 13 12
12 11 11 10 11 10 10 10 11 10 9 9 9 9 9 8 8 8 9 8 9 10 9 9 9 8 8 9 10 10 11 12 11 10 10 10 11 11 12 12 13 13 14 14
13 13 12 11 11 11 11 10 10 10 10 10 10 9 9 8 9 9 9 8 9 9 9 9 10 9 9 10 10 10 10 10 11 10 10 10 11 12 12 13 14 14 14 14
11 11 10 10 11 11 11 10 10 10 10 9 9 9 10 10 10 10 10 9 10 10 9 9 10 10 10 10 10 10 10 10 10 10 10 10 11 12 12 13 13 13 13 12
11 11 9 10 10 10 11 11 10 9 9 9 10 10 10 10 10 10 10 10 11 11 11 10 10 10 10 10 10 10 10 10 10 10 10 10 11 11 12 12 13 13 13 12
11 10 9 10 9 9 10 10 10 9 9 9 10 10 10 11 10 11 11 12 11 11 10 10 10 11 11 10 11 10 10 10 10 10 11 11 12 12 12 12 12 13 12 12
11 10 10 10 10 10 10 10 11 11 10 9 10 10 10 11 10 11 12 12 11 11 11 11 11 10 10 10 10 10 10 10 10 11 11 12 12 12 12 13 12 12 12 12
11 10 10 9 10 10 10 10 10 11 10 10 10 10 11 11 11 11 11 12 12 12 11 12 13 13 11 10 9 9 9 9 10 10 11 12 12 12 12 12 12 12 12 12
11 10 10 10 10 11 10 10 11 10 10 10 10 11 11 11 11 12 13 11 11 13 12 14 15 13 12 8 8 9 9 9 10 11 11 12 12 12 12 12 12 12 12 12
10 10 11 10 9 10 11 10 10 10 10 10 9 9 10 11 11 11 12 13 14 13 13 14 13 12 11 9 9 9 9 10 10 11 12 12 12 12 12 12 12 12 11 11
10 10 10 11 11 11 11 10 10 10 10 10 10 10 10 10 12 13 13 13 13 12 13 14 13 12 8 8 9 9 10 11 11 11 11 12 12 11 12 11 11 11 11 11
10 10 10 10 11 11 11 11 11 10 10 11 11 11 11 12 12 12 12 12 11 11 11 11 10 9 9 9 9 9 10 10 10 10 10 11 12 12 12 11 10 10 11 11
9 10 10 10 10 10 11 11 11 11 11 11 11 11 12 11 12 12 13 11 11 10 10 10 9 9 8 9 9 9 9 10 10 10 9 10 10 10 10 10 10 10 10 10